TimeEDT,TemperatureF,Dew PointF,Humidity,Sea Level PressureIn,VisibilityMPH,Wind Direction,Wind SpeedMPH,Gust SpeedMPH,PrecipitationIn,Events,Conditions,WindDirDegrees,DateUTC
12:56 AM,52.0,37.0,57,30.22,10.0,Calm,Calm,-,N/A,,Overcast,0,2013-04-04 04:56:00
1:56 AM,52.0,35.1,53,30.21,10.0,ENE,3.5,-,0.00,Rain,Light Rain,70,2013-04-04 05:56:00
2:56 AM,50.0,37.9,63,30.20,10.0,NE,4.6,-,0.00,Rain,Light Rain,50,2013-04-04 06:56:00
3:56 AM,46.9,41.0,80,30.19,10.0,NE,3.5,-,0.04,Rain,Light Rain,50,2013-04-04 07:56:00
4:56 AM,46.0,41.0,83,30.19,10.0,ENE,5.8,-,0.01,Rain,Light Rain,60,2013-04-04 08:56:00
5:56 AM,46.0,41.0,83,30.19,10.0,NE,8.1,-,0.01,,Overcast,40,2013-04-04 09:56:00
6:56 AM,46.0,39.9,79,30.19,8.0,NE,6.9,-,0.01,Rain,Rain,50,2013-04-04 10:56:00
7:56 AM,46.0,39.9,79,30.19,10.0,ENE,8.1,-,0.01,Rain,Light Rain,60,2013-04-04 11:56:00
8:56 AM,45.0,37.0,74,30.19,6.0,NE,10.4,19.6,0.01,Rain,Rain,50,2013-04-04 12:56:00
9:56 AM,45.0,36.0,71,30.17,10.0,NE,9.2,23.0,0.00,Rain,Light Rain,50,2013-04-04 13:56:00
10:45 AM,41.0,37.4,87,30.15,2.5,NE,13.8,20.7,0.08,Rain,Rain,40,2013-04-04 14:45:00
10:56 AM,41.0,37.0,86,30.16,2.5,NE,12.7,24.2,0.11,Rain,Heavy Rain,50,2013-04-04 14:56:00
11:05 AM,41.0,37.4,87,30.17,4.0,NE,8.1,20.7,0.01,Rain,Light Rain,40,2013-04-04 15:05:00
11:37 AM,39.2,37.4,93,30.17,2.0,NNE,11.5,21.9,0.06,Rain,Rain,30,2013-04-04 15:37:00
11:56 AM,39.9,37.9,93,30.17,1.8,NE,11.5,-,0.13,Rain,Heavy Rain,40,2013-04-04 15:56:00
12:09 PM,39.2,37.4,93,30.15,1.8,NE,13.8,21.9,0.02,Rain,Rain,40,2013-04-04 16:09:00
12:31 PM,39.2,37.4,93,30.16,2.0,NNE,9.2,21.9,0.05,Rain,Light Rain,30,2013-04-04 16:31:00
12:56 PM,39.9,37.9,93,30.14,2.0,NE,12.7,19.6,0.09,Rain,Light Rain,40,2013-04-04 16:56:00
1:49 PM,39.2,39.2,100,30.10,4.0,NE,12.7,19.6,0.03,Rain,Light Rain,40,2013-04-04 17:49:00
1:56 PM,39.9,39.0,97,30.11,3.0,NE,9.2,18.4,0.03,Rain,Light Rain,40,2013-04-04 17:56:00
2:05 PM,41.0,39.2,93,30.10,2.0,NNE,11.5,-,0.02,Rain,Rain,20,2013-04-04 18:05:00
2:18 PM,41.0,39.2,93,30.09,4.0,NE,16.1,23.0,0.02,Rain,Light Rain,40,2013-04-04 18:18:00
2:28 PM,41.0,39.2,93,30.09,2.0,NE,11.5,21.9,0.05,Rain,Light Rain,40,2013-04-04 18:28:00
2:39 PM,41.0,39.2,93,30.08,4.0,NE,10.4,18.4,0.05,Rain,Light Rain,40,2013-04-04 18:39:00
2:56 PM,41.0,39.9,96,30.07,2.5,NE,10.4,-,0.06,Rain,Light Rain,40,2013-04-04 18:56:00
3:06 PM,41.0,39.2,93,30.06,3.0,NNE,11.5,19.6,0.00,Rain,Light Rain,30,2013-04-04 19:06:00
3:35 PM,41.0,39.2,93,30.08,1.8,North,10.4,-,0.03,Rain,Rain,10,2013-04-04 19:35:00
3:45 PM,41.0,39.2,93,30.06,2.5,NE,10.4,18.4,0.05,Rain,Heavy Rain,40,2013-04-04 19:45:00
3:56 PM,42.1,39.9,92,30.05,2.0,NNE,10.4,19.6,0.08,Rain,Rain,30,2013-04-04 19:56:00
4:16 PM,41.0,39.2,93,30.05,3.0,NNE,10.4,-,0.01,Rain,Light Rain,20,2013-04-04 20:16:00
4:36 PM,42.8,39.2,87,30.04,2.5,NNE,12.7,19.6,0.02,Rain,Light Rain,30,2013-04-04 20:36:00
4:53 PM,42.8,39.2,87,30.04,4.0,NNE,9.2,23.0,0.03,Rain,Light Rain,30,2013-04-04 20:53:00
4:56 PM,42.1,39.9,92,30.04,5.0,NNE,10.4,-,0.03,Rain,Light Rain,20,2013-04-04 20:56:00
5:56 PM,41.0,39.0,93,30.02,7.0,NNE,15.0,-,0.02,Rain,Light Rain,30,2013-04-04 21:56:00
6:10 PM,41.0,39.2,93,30.02,4.0,NNE,9.2,19.6,0.00,Rain,Light Rain,20,2013-04-04 22:10:00
6:56 PM,39.9,39.0,97,30.03,5.0,North,8.1,-,0.00,Rain,Light Rain,10,2013-04-04 22:56:00
7:56 PM,39.0,37.0,93,30.01,6.0,NNE,10.4,19.6,0.00,,Overcast,30,2013-04-04 23:56:00
8:56 PM,37.9,37.0,97,30.01,5.0,North,10.4,19.6,N/A,,Overcast,10,2013-04-05 00:56:00
9:11 PM,37.4,35.6,93,30.01,7.0,NNE,10.4,20.7,N/A,,Overcast,20,2013-04-05 01:11:00
9:25 PM,37.4,35.6,93,30.01,6.0,NNE,12.7,-,N/A,,Overcast,30,2013-04-05 01:25:00
9:56 PM,37.9,36.0,93,30.01,9.0,NNE,6.9,-,N/A,,Overcast,20,2013-04-05 01:56:00
10:05 PM,37.4,37.4,100,30.01,10.0,NNE,8.1,-,N/A,,Overcast,30,2013-04-05 02:05:00
10:54 PM,37.4,35.6,93,30.00,9.0,NNE,8.1,-,N/A,,Overcast,30,2013-04-05 02:54:00
10:56 PM,37.9,36.0,93,30.01,9.0,NNE,11.5,-,N/A,,Overcast,30,2013-04-05 02:56:00
11:56 PM,37.9,37.0,97,30.01,10.0,Variable,5.8,-,N/A,,Overcast,0,2013-04-05 03:56:00